[[{"header":{"parameterUnit":"m.s-1","parameterCategory":1,"la1":30.2992,"la2":30.254,"lo1":-89.0895,"lo2":-89.0443,"dy":0.0025,"dx":0.0025,"nx":19,"ny":19,"refTime":"2026-05-21T03:00:00:Z","depth":0,"parameterNumber":2,"parameterNumberName":"U-component_of_WINDS"},"data":[0,0,0,-3.1613,-3.1614,-3.1646,-3.1646,-3.1689,-3.1689,0,0,0,0,0,0,0,0,0,0,0,-3.1607,-3.1607,-3.1613,-3.1614,-3.1646,-3.1646,-3.1689,-3.1689,0,0,0,0,0,0,0,0,0,0,0,-3.1606,-3.1607,-3.1607,-3.1614,-3.1646,-3.1646,-3.1689,-3.1664,0,0,0,0,0,0,0,0,0,0,-3.1632,-3.1629,-3.1607,-3.1607,-3.1614,-3.1646,-3.1646,-3.1662,-3.1665,-3.1676,0,-3.1687,0,-3.1689,-3.1692,-3.1693,0,0,0,-3.1612,-3.1627,-3.1633,-3.1607,-3.1615,-3.1646,-3.1631,-3.1664,-3.1667,-3.168,-3.1688,-3.1689,-3.169,-3.1693,-3.1693,-3.1765,-3.1765,0,0,-3.161,-3.1613,-3.1631,-3.1635,-3.1632,-3.163,-3.1632,-3.1666,-3.1674,-3.1688,-3.169,-3.1691,-3.1693,-3.1693,-3.1764,-3.1765,0,0,0,-3.1607,-3.1612,-3.1618,-3.1634,-3.1639,-3.1631,-3.1633,-3.1673,-3.1674,-3.1691,-3.1691,-3.1693,-3.1694,-3.1764,-3.1765,-3.1788,0,0,0,-3.1605,-3.161,-3.1617,-3.1619,-3.1639,-3.1657,-3.164,-3.1672,-3.1676,-3.1691,-3.1693,-3.1694,-3.1763,-3.1764,-3.1787,-3.1798,0,0,0,-3.1604,-3.161,-3.1616,-3.1619,-3.1633,-3.1656,-3.1659,-3.1673,-3.1676,-3.1693,-3.1694,-3.1763,-3.1764,-3.1785,-3.1796,-3.1816,0,0,0,-3.1602,-3.1637,-3.1616,-3.1655,-3.1633,-3.1672,-3.1659,-3.1688,-3.1705,-3.1694,-3.1763,-3.1764,-3.1785,-3.1794,-3.1815,-3.1833,-3.1841,0,0,-3.1647,-3.1642,-3.1665,-3.1647,-3.169,-3.1667,-3.1713,-3.1725,-3.1724,-3.1751,-3.1753,-3.1787,-3.1796,-3.1816,-3.1892,-3.1899,0,0,0,-3.168,-3.1696,-3.1707,-3.1724,-3.1735,-3.1745,-3.175,-3.1755,-3.1778,-3.1739,-3.1802,-3.1807,-3.1818,-3.1826,-3.1832,-3.1841,-3.1769,-3.1769,-3.1769,-3.1747,-3.1744,-3.178,-3.1781,-3.1798,-3.1803,-3.1816,-3.1823,-3.1815,-3.183,-3.1837,-3.1883,-3.1893,-3.1898,-3.1907,-3.1848,-3.1848,-3.1849,-3.1849,-3.1811,-3.1832,-3.1821,-3.1852,-3.1849,-3.1875,-3.1881,-3.1875,-3.1897,-3.1878,-3.1888,-3.1865,-3.1905,-3.1913,-3.185,-3.185,-3.185,-3.185,-3.185,-3.1851,-3.1861,-3.1867,-3.1891,-3.191,-3.191,-3.1932,-3.1929,-3.1925,-3.1936,-3.1941,-3.1941,-3.1937,-3.1939,-3.1939,-3.194,-3.194,-3.194,-3.194,-3.189,-3.1896,-3.1916,-3.1931,-3.1941,-3.1954,-3.1961,-3.1971,-3.198,-3.1975,-3.1975,-3.1964,-3.1911,-3.1896,-3.1942,-3.1942,-3.1942,-3.1941,-3.1941,-3.1951,-3.1937,-3.1967,-3.1977,-3.1994,-3.2012,-3.2009,-3.2028,-3.2036,-3.2047,-3.2034,-3.1997,-3.199,-3.1986,-3.1973,-3.2037,-3.2037,-3.2037,-3.2037,-3.1983,-3.1981,-3.201,-3.2027,-3.2043,-3.2042,-3.2075,-3.208,-3.2084,-3.2088,-3.2079,-3.2063,-3.2059,-3.2055,-3.2049,-3.2036,-3.2115,-3.2115,-3.2115,-3.2019,-3.2018,-3.2046,-3.2051,-3.2064,-3.2075,-3.2105,-3.2123,-3.2125,-3.2118,-3.209,-3.2087,-3.2061,-3.2054,-3.2043,-3.2034,-3.2012,0,0]},{"header":{"parameterUnit":"m.s-1","parameterCategory":1,"la1":30.2992,"la2":30.254,"lo1":-89.0895,"lo2":-89.0443,"dy":0.0025,"dx":0.0025,"nx":19,"ny":19,"refTime":"2026-05-21T03:00:00:Z","depth":0,"parameterNumber":3,"parameterNumberName":"V-component_of_WINDS"},"data":[0,0,0,4.281,4.2813,4.2945,4.2946,4.3105,4.3106,0,0,0,0,0,0,0,0,0,0,0,4.2768,4.2769,4.281,4.2813,4.2945,4.2946,4.3104,4.3106,0,0,0,0,0,0,0,0,0,0,0,4.2767,4.2768,4.277,4.2814,4.2945,4.2946,4.3104,4.3007,0,0,0,0,0,0,0,0,0,0,4.288,4.2839,4.2768,4.277,4.2814,4.2945,4.2946,4.3003,4.3013,4.3041,0,4.3068,0,4.309,4.3116,4.3117,0,0,0,4.2815,4.283,4.2869,4.277,4.2815,4.2945,4.2886,4.3009,4.3021,4.3055,4.307,4.3076,4.3092,4.3117,4.3118,4.3281,4.3282,0,0,4.2807,4.2789,4.2861,4.2876,4.2859,4.2882,4.289,4.3016,4.303,4.3071,4.308,4.3095,4.3118,4.3119,4.3281,4.3281,0,0,0,4.2785,4.2784,4.282,4.287,4.2894,4.2885,4.2895,4.3025,4.3038,4.3082,4.3097,4.3119,4.3121,4.328,4.3281,4.3299,0,0,0,4.2781,4.2771,4.2817,4.2807,4.2892,4.2962,4.2901,4.3029,4.3044,4.3096,4.3119,4.3122,4.3279,4.328,4.3297,4.331,0,0,0,4.276,4.2769,4.2787,4.2805,4.2862,4.296,4.2981,4.3033,4.3053,4.3117,4.3123,4.3279,4.328,4.3295,4.3307,4.3348,0,0,0,4.2732,4.28,4.2787,4.2868,4.2861,4.2971,4.298,4.3063,4.3119,4.312,4.3279,4.3281,4.3294,4.3305,4.3346,4.338,4.3392,0,0,4.2807,4.2808,4.2857,4.285,4.2958,4.2952,4.3062,4.313,4.3151,4.3236,4.324,4.3297,4.3307,4.3347,4.3468,4.3477,0,0,0,4.2875,4.291,4.2942,4.2997,4.3052,4.31,4.3153,4.3178,4.3252,4.3192,4.3324,4.333,4.3354,4.3371,4.338,4.3402,4.3288,4.3288,4.3288,4.2955,4.2981,4.3063,4.3104,4.3157,4.3212,4.3256,4.3298,4.3307,4.3337,4.3363,4.3433,4.3452,4.3459,4.3481,4.3382,4.3383,4.3383,4.3383,4.3068,4.3122,4.3133,4.3217,4.3242,4.3312,4.3367,4.337,4.3438,4.3416,4.3439,4.3413,4.3469,4.349,4.3384,4.3384,4.3384,4.3384,4.3383,4.3124,4.3154,4.3185,4.3266,4.3325,4.3363,4.3428,4.3448,4.3467,4.349,4.3519,4.3518,4.3521,4.3502,4.3502,4.3502,4.3503,4.3503,4.3503,4.317,4.3204,4.3258,4.3322,4.3359,4.3411,4.3466,4.3502,4.3547,4.3556,4.3557,4.3562,4.347,4.3446,4.3507,4.3506,4.3506,4.3505,4.3505,4.3276,4.3255,4.3338,4.3376,4.3452,4.3509,4.3534,4.3606,4.3639,4.367,4.367,4.3599,4.36,4.3594,4.3575,4.3665,4.3665,4.3665,4.3665,4.3323,4.3326,4.3416,4.3475,4.3534,4.3565,4.3655,4.3698,4.3738,4.3759,4.3748,4.3724,4.3717,4.3723,4.3714,4.3696,4.3815,4.3815,4.3815,4.339,4.34,4.3475,4.3516,4.3577,4.3627,4.3713,4.3778,4.3818,4.3822,4.3776,4.377,4.3731,4.3717,4.372,4.3706,4.3674,0,0]}]]